[[{"header":{"parameterUnit":"m.s-1","parameterCategory":1,"la1":30.2991,"la2":30.254,"lo1":-89.0895,"lo2":-89.0444,"dy":0.0017,"dx":0.0017,"nx":28,"ny":28,"refTime":"2025-01-02T09:00:00:Z","depth":0,"parameterNumber":2,"parameterNumberName":"U-component_of_WINDS"},"data":[0,0,0,0,0,0,0,0,0,0,0,0,0,0,0,0,0,0,0,0,0,0,0,0,0,0,0,0,0,0,0,0,0,0,0,0,0,0,0,0,0,0,0,0,0,0,0,0,0,0,0,0,0,0,0,0,0,0,-1.9594,-1.9595,0,-1.9636,-1.9637,-1.9637,-1.9535,-1.9531,-1.9528,-1.9525,-1.9572,-1.9576,-1.958,0,0,0,0,0,0,0,0,0,0,0,0,0,-1.9427,-1.9431,-1.9594,-1.9595,-1.9595,-1.9636,-1.9637,-1.9637,-1.9535,-1.9531,-1.9527,-1.9524,-1.957,-1.9575,-1.958,0,0,0,0,0,0,0,0,0,0,0,0,0,-1.9488,-1.9432,-1.9594,-1.9549,-1.9546,-1.9636,-1.9637,-1.9638,-1.9536,-1.9531,-1.9526,-1.9522,-1.9568,-1.9575,-1.9581,-1.9718,0,0,-1.9601,-1.9603,0,0,0,0,0,0,0,0,-1.9485,-1.9494,-1.9555,-1.9552,-1.9549,-1.9575,-1.9595,-1.9665,-1.9537,-1.954,-1.9525,-1.9519,-1.9577,-1.9582,-1.9601,-1.972,-1.9722,-1.9601,-1.9605,-1.9608,-1.961,0,0,0,0,0,0,0,-1.9481,-1.9492,-1.9611,-1.9556,-1.9552,-1.9528,-1.9531,-1.9608,-1.9585,-1.9539,-1.9532,-1.9538,-1.9574,-1.9595,-1.9601,-1.9723,-1.9601,-1.9607,-1.9611,-1.9613,-1.9957,-1.9962,0,0,0,0,0,0,-1.9482,-1.9489,-1.961,-1.9612,-1.9504,-1.9535,-1.9538,-1.9572,-1.9584,-1.9581,-1.9542,-1.9533,-1.9587,-1.9594,-1.9603,-1.9765,-1.9608,-1.9614,-1.9617,-1.9952,-1.9958,-1.9964,0,0,0,0,0,0,-1.9479,-1.9493,-1.9608,-1.9549,-1.9561,-1.9543,-1.9581,-1.9575,-1.9596,-1.9586,-1.9582,-1.9568,-1.9583,-1.9594,-1.969,-1.9765,-1.9617,-1.9622,-1.9945,-1.9954,-1.9961,-2.009,0,0,0,0,0,0,-1.9474,-1.9493,-1.9545,-1.955,-1.9565,-1.9695,-1.9586,-1.9579,-1.9607,-1.9595,-1.9609,-1.9607,-1.958,-1.9681,-1.9696,-1.9771,-1.9627,-1.9939,-1.9949,-1.9958,-2.0079,-2.0101,-2.012,0,0,0,0,0,-1.9469,-1.958,-1.9548,-1.9563,-1.9629,-1.9699,-1.9707,-1.9673,-1.9613,-1.9665,-1.9659,-1.9606,-1.9753,-1.9692,-1.9708,-1.9786,-1.9934,-1.9946,-1.9958,-2.007,-2.0097,-2.012,0,0,0,0,0,0,-1.9585,-1.958,-1.9544,-1.9661,-1.9681,-1.9682,-1.9746,-1.9703,-1.9742,-1.973,-1.9686,-1.9691,-1.9796,-1.98,-1.9731,-1.9919,-1.9833,-1.9849,-1.9913,-1.9939,-1.9959,-1.9957,-1.9633,0,0,0,0,0,-1.9624,-1.968,-1.9673,-1.9777,-1.9788,-1.9766,-1.9795,-1.9767,-1.9787,-1.9795,-1.9796,-1.9818,-1.9869,-1.9903,-1.995,-2.0078,-2.008,-2.0139,-2.016,-2.0177,-2.0192,-2.0261,-2.0287,-2.0003,-2.0003,-2.0002,0,0,-1.9706,-1.971,-1.9748,-1.98,-1.9812,-1.9873,-1.9774,-1.9842,-1.9887,-1.9806,-1.9897,-1.9898,-1.9919,-2.0033,-2.0082,-2.0039,-2.0271,-2.0192,-2.0206,-2.0212,-2.0276,-2.0303,-2.0327,-2.0011,-2.0009,-2.0008,0,0,-1.9886,-1.9894,-1.9981,-1.9995,-2.0015,-1.9998,-2.0019,-2.0026,-2.0024,-2.0114,-2.0054,-2.0107,-2.0196,-2.0213,-2.0234,-2.0419,-2.0373,-2.0435,-2.0545,-2.0612,-2.0635,-2.0654,-2.0722,-2.0746,-2.045,-2.045,-2.045,0,-1.9986,-2.0073,-2.0032,-2.0104,-2.0129,-2.0056,-2.0145,-2.0161,-2.0195,-2.0214,-2.0165,-2.0274,-2.0283,-2.04,-2.0445,-2.0463,-2.0487,-2.0435,-2.0634,-2.0654,-2.0672,-2.0736,-2.0761,-2.0458,-2.0457,-2.0456,-2.0455,0,-2.0196,-2.0257,-2.0326,-2.0359,-2.0391,-2.0472,-2.0443,-2.048,-2.0449,-2.0438,-2.0531,-2.0539,-2.0586,-2.0611,-2.0581,-2.0723,-2.0696,-2.0641,-2.0555,-2.0707,-2.0767,-2.0791,-2.0469,-2.0466,-2.0464,-2.0462,0,0,-2.0454,-2.0461,-2.0488,-2.0502,-2.0517,-2.0564,-2.0641,-2.0685,-2.0719,-2.0744,-2.0808,-2.0884,-2.0833,-2.0857,-2.0828,-2.0887,-2.1034,-2.0824,-2.0824,-2.0865,-2.1193,-2.1236,-2.1265,-2.1002,-2.1006,-2.101,-2.1191,0,-2.0633,-2.0764,-2.0728,-2.0859,-2.0917,-2.0847,-2.0914,-2.0931,-2.0922,-2.097,-2.096,-2.1015,-2.0943,-2.0957,-2.1011,-2.1005,-2.11,-2.0991,-2.1063,-2.1066,-2.1062,-2.1295,-2.1341,-2.1512,-2.1214,-2.1218,-2.1221,0,-2.086,-2.0894,-2.1031,-2.1036,-2.1058,-2.1119,-2.1157,-2.1202,-2.122,-2.1209,-2.1235,-2.1194,-2.127,-2.1181,-2.1285,-2.1212,-2.1239,-2.124,-2.1245,-2.1253,-2.1155,-2.1312,-2.1566,-2.1593,-2.1257,-2.1254,-2.1251,0,-2.1037,-2.1116,-2.1208,-2.1222,-2.123,-2.1274,-2.128,-2.1292,-2.1321,-2.1354,-2.1372,-2.1414,-2.1437,-2.1471,-2.1442,-2.1379,-2.1552,-2.146,-2.1547,-2.1548,-2.1589,-2.1587,-2.1853,-2.1602,-2.1602,-2.1601,-2.1601,0,-2.1243,-2.133,-2.1287,-2.1345,-2.144,-2.1397,-2.1493,-2.149,-2.1502,-2.1557,-2.1499,-2.1553,-2.151,-2.156,-2.1538,-2.1629,-2.1639,-2.1634,-2.1628,-2.1641,-2.1642,-2.166,-2.1648,-2.1608,-2.1606,-2.1605,-2.1604,0,-2.1458,-2.1433,-2.1529,-2.1527,-2.1529,-2.16,-2.1599,-2.1652,-2.1637,-2.1709,-2.1723,-2.1702,-2.1758,-2.1731,-2.179,-2.1775,-2.1892,-2.1869,-2.1887,-2.1882,-2.197,-2.1963,-2.226,-2.2297,-2.202,-2.2023,-2.2025,0,-2.1592,-2.1658,-2.1663,-2.1695,-2.1704,-2.1758,-2.1786,-2.1746,-2.1779,-2.1803,-2.1853,-2.1903,-2.1942,-2.2034,-2.2025,-2.2069,-2.2048,-2.2148,-2.2054,-2.2065,-2.2052,-2.2049,-2.2056,-2.2168,-2.2172,-2.2174,-2.2176,0,-2.1834,-2.1818,-2.1861,-2.19,-2.1936,-2.1965,-2.1989,-2.2019,-2.1979,-2.2019,-2.2075,-2.2104,-2.2163,-2.2215,-2.2253,-2.2259,-2.2213,-2.2205,-2.2228,-2.2244,-2.2252,-2.2251,-2.1941,-2.22,-2.2197,-2.2196,-2.2194,-2.2193,-2.2014,-2.2069,-2.2081,-2.2131,-2.2144,-2.2168,-2.2218,-2.2209,-2.2255,-2.2299,-2.2272,-2.2338,-2.2352,-2.2399,-2.2411,-2.2462,-2.2422,-2.2455,-2.2464,-2.2473,-2.2486,-2.2242,-2.2469,-2.2468,-2.2467,-2.2467,-2.2466,0,-2.2255,-2.2258,-2.2305,-2.234,-2.2379,-2.2329,-2.2352,-2.2389,-2.2447,-2.2464,-2.2503,-2.2567,-2.2616,-2.2609,-2.2654,-2.2696,-2.2676,-2.2709,-2.2707,-2.271,-2.2518,-2.2495,-2.2725,-2.2725,-2.2725,-2.2725,-2.2725,-2.2725,-2.2385,-2.2475,-2.246,-2.2556,-2.2559,-2.2622,-2.264,-2.2662,-2.2675,-2.2749,-2.2789,-2.2783,-2.2791,-2.2835,-2.2878,-2.2875,-2.2895,-2.2937,-2.2927,-2.2749,-2.2723,-2.2699,-2.2677,-2.2941,-2.2942,-2.3114,-2.3116,-2.3117]},{"header":{"parameterUnit":"m.s-1","parameterCategory":1,"la1":30.2991,"la2":30.254,"lo1":-89.0895,"lo2":-89.0444,"dy":0.0017,"dx":0.0017,"nx":28,"ny":28,"refTime":"2025-01-02T09:00:00:Z","depth":0,"parameterNumber":3,"parameterNumberName":"V-component_of_WINDS"},"data":[0,0,0,0,0,0,0,0,0,0,0,0,0,0,0,0,0,0,0,0,0,0,0,0,0,0,0,0,0,0,0,0,0,0,0,0,0,0,0,0,0,0,0,0,0,0,0,0,0,0,0,0,0,0,0,0,0,0,-4.5834,-4.5835,0,-4.5933,-4.5934,-4.5935,-4.5879,-4.5876,-4.5874,-4.5871,-4.5968,-4.5973,-4.5978,0,0,0,0,0,0,0,0,0,0,0,0,0,-4.5591,-4.5596,-4.5833,-4.5835,-4.5836,-4.5932,-4.5934,-4.5935,-4.588,-4.5876,-4.5873,-4.587,-4.5966,-4.5972,-4.5978,0,0,0,0,0,0,0,0,0,0,0,0,0,-4.5694,-4.5597,-4.5833,-4.582,-4.582,-4.5932,-4.5934,-4.5935,-4.588,-4.5876,-4.5872,-4.5868,-4.5964,-4.5971,-4.5979,-4.6108,0,0,-4.6002,-4.6006,0,0,0,0,0,0,0,0,-4.5688,-4.5703,-4.5821,-4.5821,-4.5821,-4.5889,-4.5884,-4.5993,-4.5881,-4.5857,-4.5871,-4.5866,-4.5945,-4.5954,-4.5981,-4.6113,-4.6117,-4.6003,-4.6008,-4.6011,-4.6013,0,0,0,0,0,0,0,-4.5681,-4.5698,-4.5872,-4.5823,-4.5823,-4.5807,-4.5817,-4.5904,-4.5922,-4.5859,-4.5855,-4.5868,-4.5944,-4.5974,-4.5983,-4.6118,-4.6003,-4.601,-4.6014,-4.6017,-4.636,-4.6364,0,0,0,0,0,0,-4.5675,-4.5693,-4.5869,-4.5875,-4.5743,-4.5815,-4.5826,-4.5872,-4.5921,-4.5925,-4.5871,-4.5865,-4.5963,-4.5974,-4.5986,-4.614,-4.6011,-4.6018,-4.6022,-4.6355,-4.6361,-4.6366,0,0,0,0,0,0,-4.5671,-4.5692,-4.5865,-4.5783,-4.5804,-4.5824,-4.5875,-4.5876,-4.5906,-4.5931,-4.5933,-4.5899,-4.596,-4.5975,-4.6078,-4.6142,-4.6022,-4.6029,-4.635,-4.6357,-4.6363,-4.645,0,0,0,0,0,0,-4.5664,-4.569,-4.5741,-4.5785,-4.5809,-4.5958,-4.5879,-4.5881,-4.592,-4.5912,-4.5957,-4.5961,-4.5958,-4.6067,-4.6086,-4.6151,-4.6035,-4.6344,-4.6353,-4.6361,-4.6441,-4.6458,-4.6473,0,0,0,0,0,-4.5655,-4.5761,-4.5744,-4.5766,-4.5873,-4.5962,-4.5975,-4.5971,-4.5925,-4.5975,-4.5991,-4.5959,-4.6133,-4.6078,-4.6099,-4.6167,-4.634,-4.6351,-4.636,-4.6434,-4.6455,-4.6473,0,0,0,0,0,0,-4.5722,-4.5766,-4.5748,-4.5871,-4.5914,-4.5952,-4.6016,-4.5994,-4.6049,-4.604,-4.603,-4.6041,-4.6148,-4.6168,-4.6107,-4.6294,-4.6229,-4.6244,-4.6278,-4.6298,-4.6314,-4.6307,-4.6041,0,0,0,0,0,-4.5752,-4.5822,-4.5856,-4.5961,-4.5983,-4.5996,-4.6035,-4.6028,-4.6071,-4.6088,-4.6111,-4.6153,-4.6216,-4.6258,-4.6318,-4.6444,-4.6452,-4.65,-4.6517,-4.653,-4.6542,-4.6609,-4.6631,-4.6399,-4.6399,-4.6398,0,0,-4.5813,-4.5845,-4.589,-4.5975,-4.6007,-4.6079,-4.6011,-4.609,-4.6142,-4.6099,-4.6198,-4.6217,-4.6262,-4.6377,-4.6429,-4.6397,-4.6608,-4.6543,-4.6553,-4.6558,-4.6622,-4.6643,-4.6663,-4.6406,-4.6404,-4.6403,0,0,-4.596,-4.5993,-4.6083,-4.6117,-4.6167,-4.6174,-4.6196,-4.6239,-4.625,-4.635,-4.6319,-4.638,-4.649,-4.6523,-4.6554,-4.6714,-4.6686,-4.6733,-4.6817,-4.6883,-4.6901,-4.6917,-4.6973,-4.6993,-4.6746,-4.6746,-4.6746,0,-4.6029,-4.6137,-4.6132,-4.6214,-4.6251,-4.6217,-4.6308,-4.634,-4.6406,-4.6432,-4.6396,-4.6533,-4.6561,-4.6682,-4.6721,-4.6748,-4.6771,-4.6728,-4.6899,-4.6915,-4.693,-4.6983,-4.7004,-4.6752,-4.6751,-4.675,-4.675,0,-4.6219,-4.6294,-4.6361,-4.6428,-4.6473,-4.6559,-4.6565,-4.6611,-4.66,-4.6611,-4.6712,-4.6744,-4.681,-4.6838,-4.6828,-4.6958,-4.6937,-4.69,-4.6834,-4.6958,-4.7007,-4.7028,-4.6759,-4.6757,-4.6756,-4.6754,0,0,-4.6412,-4.6474,-4.6499,-4.6528,-4.658,-4.6638,-4.6721,-4.6786,-4.6825,-4.6872,-4.694,-4.7034,-4.7,-4.7036,-4.7029,-4.7086,-4.7209,-4.7042,-4.7043,-4.7071,-4.7353,-4.738,-4.7404,-4.7191,-4.7195,-4.7198,-4.7349,0,-4.6562,-4.6709,-4.6707,-4.6843,-4.6911,-4.6879,-4.6951,-4.699,-4.7003,-4.7061,-4.7073,-4.714,-4.7091,-4.7112,-4.7167,-4.7182,-4.7265,-4.7171,-4.7253,-4.7256,-4.7242,-4.743,-4.7459,-4.76,-4.7369,-4.7372,-4.7374,0,-4.6757,-4.6811,-4.6955,-4.6996,-4.7025,-4.709,-4.7149,-4.7207,-4.7249,-4.7254,-4.7294,-4.7277,-4.736,-4.7292,-4.7404,-4.7341,-4.7374,-4.7386,-4.7391,-4.7398,-4.7322,-4.7441,-4.7645,-4.7666,-4.7405,-4.7403,-4.74,0,-4.6882,-4.6991,-4.7091,-4.7117,-4.7168,-4.7214,-4.7237,-4.7276,-4.7315,-4.7367,-4.7392,-4.7452,-4.7484,-4.753,-4.7529,-4.748,-4.7643,-4.7575,-4.7647,-4.7648,-4.7683,-4.768,-4.7894,-4.7705,-4.7705,-4.7705,-4.7704,0,-4.705,-4.7138,-4.7148,-4.7209,-4.7306,-4.7302,-4.7398,-4.7417,-4.7451,-4.7514,-4.7489,-4.7548,-4.7545,-4.7604,-4.7604,-4.7696,-4.7711,-4.7716,-4.7715,-4.7718,-4.7717,-4.7739,-4.7729,-4.771,-4.7709,-4.7708,-4.7707,0,-4.7206,-4.7216,-4.7322,-4.7362,-4.7374,-4.7444,-4.7477,-4.7535,-4.7545,-4.7624,-4.7643,-4.7658,-4.7726,-4.773,-4.7809,-4.7809,-4.7921,-4.7909,-4.7907,-4.7905,-4.7977,-4.797,-4.8211,-4.8242,-4.8034,-4.8036,-4.8038,0,-4.7312,-4.738,-4.7427,-4.7468,-4.7495,-4.7561,-4.7601,-4.7599,-4.7641,-4.7695,-4.7745,-4.7812,-4.7865,-4.7975,-4.7992,-4.8051,-4.804,-4.8121,-4.8049,-4.805,-4.804,-4.8036,-4.8042,-4.8134,-4.8137,-4.8139,-4.814,0,-4.7499,-4.7501,-4.7561,-4.7623,-4.7672,-4.772,-4.7765,-4.7799,-4.7802,-4.7851,-4.7921,-4.7962,-4.8043,-4.8108,-4.8167,-4.8188,-4.8164,-4.8163,-4.8183,-4.8186,-4.8182,-4.8184,-4.7945,-4.8157,-4.8155,-4.8154,-4.8153,-4.8153,-4.7633,-4.7691,-4.7734,-4.7801,-4.7835,-4.7877,-4.7933,-4.795,-4.801,-4.8076,-4.8071,-4.8148,-4.8188,-4.8263,-4.829,-4.8349,-4.8321,-4.835,-4.8357,-4.8364,-4.8372,-4.8173,-4.836,-4.8359,-4.8359,-4.8358,-4.8358,0,-4.7818,-4.7844,-4.7906,-4.797,-4.8023,-4.7998,-4.8045,-4.809,-4.816,-4.8199,-4.8252,-4.8333,-4.8396,-4.8418,-4.8479,-4.8522,-4.8513,-4.8538,-4.8535,-4.854,-4.8393,-4.837,-4.8545,-4.8545,-4.8545,-4.8545,-4.8545,-4.8545,-4.792,-4.8018,-4.8024,-4.8137,-4.8161,-4.8239,-4.8268,-4.8307,-4.8338,-4.8429,-4.8483,-4.8497,-4.8529,-4.8592,-4.8649,-4.8653,-4.8676,-4.8706,-4.8706,-4.8569,-4.855,-4.8532,-4.851,-4.8712,-4.8712,-4.8848,-4.8849,-4.885]}]]